DM8MH-13 Weather Reports


time (UTC)temp
C
wind
direction
speed
KPH
gust
KPH
rain 1hr
cm
rain 24hr
cm
rain mn
cm
humidity
%
barometer
mb
20260507101110 8 307 1.6 6.4 0.15 2.69 1.47 92 1012.9
20260507100110 8 19 1.6 8.0 0.13 2.69 1.45 92 1012.7
20260507095110 7 337 1.6 8.0 0.15 2.67 1.45 92 1012.6
20260507094110 7 348 1.6 6.4 0.15 2.64 1.42 92 1012.4
20260507093113 7 333 0.0 8.0 0.15 2.62 1.40 92 1012.3
20260507092114 7 32 0.0 6.4 0.15 2.59 1.37 92 1012.3
20260507091113 7 355 3.2 6.4 0.15 2.57 1.35 92 1012.1
20260507090113 7 303 1.6 8.0 0.15 2.57 1.35 92 1011.9
20260507085113 7 295 1.6 11.3 0.15 2.51 1.30 92 1011.8
20260507084113 7 355 3.2 8.0 0.15 2.49 1.27 92 1011.6
20260507083113 7 318 3.2 9.7 0.18 2.49 1.27 92 1011.5
20260507082114 7 244 0.0 3.2 0.18 2.46 1.24 92 1011.3
20260507081113 7 345 3.2 9.7 0.20 2.41 1.19 92 1011.3
20260507080113 7 355 3.2 6.4 0.20 2.39 1.17 92 1011.1
20260507075114 7 317 1.6 17.7 0.20 2.39 1.17 92 1011.0
20260507074114 7 42 3.2 12.9 0.18 2.34 1.12 92 1010.8
20260507073114 7 327 3.2 14.5 0.18 2.31 1.09 92 1010.7
20260507072114 7 54 1.6 9.7 0.15 2.29 1.07 92 1010.6
20260507071113 7 28 4.8 11.3 0.15 2.21 0.99 92 1010.4
20260507070113 7 360 3.2 12.9 0.13 2.21 0.99 92 1010.3
20260507065113 7 5 4.8 14.5 0.15 2.18 0.97 92 1010.2
20260507064113 8 29 3.2 9.7 0.15 2.16 0.94 92 1010.0
20260507063113 8 298 3.2 9.7 0.15 2.11 0.89 92 1010.0
20260507062113 8 17 4.8 14.5 0.20 2.11 0.89 93 1009.9
20260507061113 8 16 4.8 12.9 0.20 2.08 0.86 93 1009.6
20260507060112 9 22 4.8 14.5 0.23 2.08 0.86 93 1009.5
20260507055113 9 333 3.2 8.0 0.23 2.06 0.81 93 1009.3
20260507054114 9 17 3.2 8.0 0.23 2.03 0.79 93 1009.1
20260507053114 9 43 3.2 8.0 0.20 1.98 0.74 93 1009.0
20260507052113 9 336 0.0 4.8 0.20 1.93 0.71 93 1009.0
20260507051113 9 338 0.0 8.0 0.18 1.91 0.66 93 1008.8
20260507050113 9 350 1.6 6.4 0.18 1.85 0.61 93 1008.6
20260507045113 9 17 3.2 8.0 0.20 1.83 0.58 93 1008.5
20260507044112 9 350 3.2 9.7 0.25 1.80 0.56 92 1008.4
20260507043113 9 33 3.2 12.9 0.30 1.78 0.53 92 1008.3
20260507042113 9 45 4.8 11.3 0.33 1.75 0.51 93 1008.3
20260507041112 9 61 3.2 8.0 0.33 1.73 0.48 93 1008.1
20260507040112 9 42 4.8 12.9 0.33 1.68 0.43 92 1007.9
20260507035114 10 67 3.2 8.0 0.33 1.63 0.38 92 1007.8
20260507034112 10 26 6.4 16.1 0.28 1.55 0.30 92 1007.6
20260507033113 10 30 3.2 9.7 0.23 1.47 0.23 92 1007.8
20260507032113 10 62 4.8 12.9 0.15 1.42 0.18 92 1007.7
20260507031112 10 360 4.8 11.3 0.13 1.37 0.15 92 1007.7
20260507030112 10 11 4.8 12.9 0.08 1.35 0.10 92 1007.6
20260507025113 10 12 6.4 14.5 0.05 1.30 0.05 92 1007.5
20260507024112 10 17 3.2 8.0 0.00 1.27 0.03 92 1007.5
20260507023113 10 355 3.2 9.7 0.00 1.27 0.03 92 1007.5
20260507022112 10 80 3.2 12.9 0.00 1.27 0.03 92 1007.4
20260507021113 10 32 1.6 8.0 0.00 1.27 0.03 92 1007.4
20260507020112 10 57 3.2 8.0 0.00 1.27 0.03 92 1007.3
20260507015112 10 44 4.8 14.5 0.00 1.37 0.03 92 1007.3
20260507014113 11 52 4.8 14.5 0.03 1.37 0.03 92 1007.2
20260507013113 11 34 6.4 11.3 0.03 1.37 0.03 92 1007.2
20260507012113 11 69 6.4 11.3 0.03 1.37 0.03 92 1007.2
20260507011112 11 24 6.4 12.9 0.03 1.37 0.03 92 1007.1
20260507010112 11 15 8.0 16.1 0.03 1.37 0.03 92 1007.1
20260507005112 11 26 6.4 14.5 0.03 1.50 0.03 92 1007.1
20260507004111 11 33 6.4 14.5 0.00 1.47 0.00 92 1007.0
20260507003112 11 45 4.8 12.9 0.00 1.47 0.00 92 1007.1
20260507002113 11 32 6.4 11.3 0.00 1.47 0.00 92 1007.0
20260507001112 11 29 6.4 12.9 0.00 1.47 0.00 92 1007.0
20260507000112 11 360 6.4 12.9 0.00 1.47 0.00 92 1007.0
20260506235112 11 53 6.4 9.7 0.00 2.11 0.00 92 1007.0
20260506234112 11 41 4.8 11.3 0.00 2.11 0.00 92 1007.0
20260506233112 11 32 6.4 11.3 0.00 2.11 0.00 92 1007.0
20260506232113 11 45 1.6 8.0 0.00 2.11 0.00 92 1007.0
20260506231112 11 25 4.8 9.7 0.00 2.11 0.00 92 1006.9
20260506230112 11 25 3.2 6.4 0.00 2.11 0.00 92 1006.7
20260506225112 11 26 3.2 6.4 0.00 2.36 0.00 92 1006.8
20260506224112 11 26 3.2 8.0 0.00 2.36 0.00 92 1006.6
20260506223113 11 11 4.8 8.0 0.05 2.36 0.00 92 1006.6
20260506222112 12 32 1.6 4.8 0.08 2.36 0.00 92 1006.7
20260506221112 12 37 0.0 8.0 0.10 2.36 0.00 92 1006.5
20260506220111 12 61 4.8 9.7 0.10 2.36 0.00 92 1006.4
20260506215111 12 36 4.8 9.7 0.10 2.59 2.59 92 1006.5
20260506214112 12 68 4.8 11.3 0.10 2.59 2.59 92 1006.4
20260506213112 12 50 8.0 16.1 0.05 2.54 2.54 92 1006.4
20260506212111 12 74 8.0 14.5 0.03 2.49 2.49 92 1006.3
20260506211111 12 57 4.8 11.3 0.00 2.49 2.49 92 1006.5
20260506210111 12 65 4.8 12.9 0.00 2.49 2.49 92 1006.5
20260506205111 12 16 4.8 9.7 0.00 2.69 2.49 92 1006.2
20260506204111 12 5 3.2 8.0 0.00 2.69 2.49 92 1006.0
20260506203112 12 35 4.8 12.9 0.00 2.69 2.49 92 1006.0
20260506202111 12 30 6.4 11.3 0.00 2.69 2.49 92 1006.0
20260506201111 13 34 3.2 8.0 0.00 2.69 2.49 92 1005.9
20260506200111 13 38 0.0 6.4 0.05 2.69 2.49 92 1005.8
20260506195111 13 25 3.2 8.0 0.15 2.79 2.49 92 1005.8
20260506194111 13 69 4.8 11.3 0.23 2.79 2.49 92 1005.5
20260506193112 13 57 6.4 14.5 0.33 2.79 2.49 92 1005.3
20260506192111 13 68 4.8 11.3 0.43 2.79 2.49 92 1005.3
20260506191111 13 33 3.2 11.3 0.43 2.79 2.49 92 1005.3
20260506190111 13 13 1.6 6.4 0.38 2.74 2.41 92 1005.4
20260506185111 13 24 3.2 8.0 0.28 2.67 2.31 92 1005.4
20260506184112 13 43 1.6 6.4 0.23 2.59 2.26 91 1005.3
20260506183112 13 60 1.6 6.4 0.10 2.49 2.13 92 1005.2
20260506182111 13 44 3.2 6.4 0.00 2.39 2.03 91 1005.0
20260506181111 13 40 1.6 8.0 0.00 2.39 2.03 91 1004.8
20260506180111 13 9 4.8 9.7 0.00 2.39 2.03 91 1004.6
20260506175111 13 49 3.2 8.0 0.00 2.39 2.03 91 1004.4
20260506174112 13 62 4.8 12.9 0.05 2.39 2.03 91 1004.3
20260506173112 13 33 6.4 14.5 0.15 2.39 2.03 91 1004.4
20260506172111 13 35 6.4 14.5 0.36 2.39 2.03 91 1004.4
20260506171111 13 360 6.4 14.5 0.51 2.39 2.03 91 1004.4
20260506170111 13 9 6.4 12.9 0.53 2.39 2.03 90 1004.2
20260506165111 13 5 4.8 14.5 0.53 2.39 2.03 90 1004.3
20260506164111 14 5 1.6 12.9 0.51 2.34 2.01 90 1004.2
20260506163110 14 22 6.4 16.1 0.43 2.24 1.91 89 1004.0
20260506162111 15 47 8.0 16.1 0.30 2.03 1.68 88 1004.2
20260506161111 15 63 3.2 14.5 0.15 1.85 1.52 87 1004.1
20260506160111 15 342 4.8 12.9 0.15 1.83 1.50 87 1003.8
20260506155111 16 23 4.8 16.1 0.15 1.83 1.50 87 1003.8
20260506154111 16 87 3.2 11.3 0.13 1.83 1.47 86 1003.7
20260506153111 16 28 6.4 12.9 0.13 1.83 1.47 84 1003.6
20260506152111 17 26 3.2 9.7 0.03 1.73 1.37 82 1003.7
20260506151110 17 26 3.2 12.9 0.00 1.70 1.37 79 1003.7
20260506150111 18 40 6.4 14.5 0.00 1.70 1.37 77 1003.7
20260506145111 18 61 1.6 11.3 0.00 1.70 1.37 77 1003.7
20260506144110 18 345 8.0 14.5 0.00 1.70 1.37 77 1003.8
20260506143112 18 5 8.0 16.1 0.00 1.70 1.37 78 1003.8
20260506142111 18 22 8.0 17.7 0.00 1.70 1.37 77 1003.7
20260506141111 20 36 6.4 16.1 0.00 1.70 1.37 71 1003.9
20260506140111 21 341 6.4 12.9 0.00 1.70 1.37 64 1004.0
20260506135111 22 9 0.0 9.7 0.00 1.70 1.37 60 1004.0
20260506134112 21 219 4.8 6.4 0.00 1.70 1.37 60 1004.2
20260506133111 21 292 1.6 6.4 0.00 1.70 1.37 65 1004.2
20260506132111 20 281 0.0 0.0 0.00 1.70 1.37 65 1004.2
20260506131110 20 157 1.6 8.0 0.00 1.70 1.37 66 1004.3
20260506130111 20 219 0.0 0.0 0.00 1.70 1.37 70 1004.4
20260506125111 19 271 0.0 3.2 0.00 1.70 1.37 70 1004.3
20260506124111 19 248 4.8 9.7 0.00 1.70 1.37 69 1004.4
20260506123111 18 196 3.2 11.3 0.00 1.70 1.37 70 1004.3
20260506122112 18 267 4.8 12.9 0.00 1.70 1.37 72 1004.2
20260506121110 19 196 1.6 9.7 0.00 1.70 1.37 72 1004.3
20260506120111 19 205 3.2 9.7 0.00 1.70 1.37 71 1004.2
20260506115111 19 262 1.6 8.0 0.00 1.70 1.37 73 1004.2
20260506114111 18 45 0.0 0.0 0.00 1.70 1.37 76 1004.1
20260506113112 18 288 0.0 0.0 0.00 1.70 1.37 78 1004.2
20260506112111 18 271 0.0 0.0 0.00 1.70 1.37 77 1004.2
20260506111111 17 288 0.0 0.0 0.00 1.70 1.37 80 1004.4
20260506110110 17 256 0.0 0.0 0.00 1.70 1.37 80 1004.5
20260506105111 17 251 0.0 0.0 0.00 1.70 1.37 79 1004.5
20260506104110 17 250 0.0 0.0 0.00 1.70 1.37 80 1004.6
20260506103111 17 251 0.0 0.0 0.00 1.70 1.37 81 1004.6
20260506102111 16 250 0.0 0.0 0.00 1.70 1.37 81 1004.6